Date String (YYYY-MM-DD hh:mm:ss) UTC,Instrument flags,absolute air pressure of the measurement (hPa),sample flow rate (lpm),inlet stack bypass flow (lpm),air temperature of the measurement (°C),ambient temperature measured by the external sensor (°C),aerosol sample conditioner tube jacket temperature (°C),OPC LED temperature (°C),internal box temperature (°C),relative humidity of the measurement (%),span deviation,mass concentration of particles derived from Lorenz-Mie calculation of OPC scattering (μg/m³),mass concentration of particles derived from Lorenz-Mie calculation of OPC scattering (μg/m³),mass concentration of particles derived from Lorenz-Mie calculation of OPC scattering (μg/m³)
DateTimeUTC,F1_M11,P_M11,Q1_M11,Q2_M11,T1_M11,T2_M11,T3_M11,T4_M11,T5_M11,U1_M11,ZSPAN_M11,X0_M11,X2_M11,X1_M11
2023-10-28 03:00:00,SystemResetWarning,0831.1,5.00,000.00,023.6,021.9,000.0,032.0,025.0,14.3,0000.0,0010.30,0005.59,0005.04
2023-10-28 03:01:00,SystemResetWarning,0831.0,5.00,000.00,023.6,021.9,000.0,032.0,025.0,14.3,0000.2,0010.19,0005.59,0005.02
2023-10-28 03:02:00,SystemResetWarning,0831.0,5.00,000.00,023.6,021.9,000.0,032.0,025.0,14.3,0000.0,0009.53,0005.54,0004.99
2023-10-28 03:03:00,SystemResetWarning,0831.0,5.00,000.00,023.6,021.9,000.0,032.0,025.0,14.3,0001.1,0009.78,0005.53,0004.98
2023-10-28 03:04:00,SystemResetWarning,0830.9,5.00,000.00,023.6,021.9,000.0,032.0,025.0,14.2,0001.2,0009.76,0005.55,0004.96
2023-10-28 03:05:00,SystemResetWarning,0831.0,5.00,000.00,023.6,021.9,000.0,032.0,025.0,14.3,0001.4,0009.79,0005.54,0004.96
2023-10-28 03:06:00,SystemResetWarning,0831.0,5.00,000.00,023.5,021.9,000.0,032.0,025.0,14.3,0001.3,0009.96,0005.56,0004.95
2023-10-28 03:07:00,SystemResetWarning,0831.0,5.00,000.00,023.5,021.8,000.0,032.0,025.0,14.3,0001.7,0010.27,0005.53,0004.92
2023-10-28 03:08:00,SystemResetWarning,0831.0,5.00,000.00,023.5,021.8,000.0,031.9,025.0,14.3,0002.1,0011.23,0005.51,0004.90
2023-10-28 03:09:00,SystemResetWarning,0831.1,5.00,000.00,023.5,021.8,000.0,031.9,025.0,14.3,0000.6,0011.41,0005.47,0004.86
2023-10-28 03:10:00,SystemResetWarning,0831.1,5.00,000.00,023.5,021.8,000.0,031.9,025.0,14.3,0000.3,0011.44,0005.40,0004.83
2023-10-28 03:11:00,SystemResetWarning,0831.2,5.00,000.00,023.5,021.8,000.0,031.9,025.0,14.3,0002.5,0011.66,0005.36,0004.81
2023-10-28 03:12:00,SystemResetWarning,0831.2,5.00,000.00,023.5,021.8,000.0,031.9,024.9,14.3,0001.6,0011.83,0005.32,0004.78
2023-10-28 03:13:00,SystemResetWarning,0831.1,5.00,000.00,023.5,021.8,000.0,031.9,024.9,14.3,0000.0,0011.54,0005.32,0004.77
2023-10-28 03:14:00,SystemResetWarning,0831.1,5.00,000.00,023.4,021.8,000.0,031.9,024.9,14.3,0000.0,0011.01,0005.32,0004.76
2023-10-28 03:15:00,SystemResetWarning,0831.1,5.00,000.00,023.4,021.7,000.0,031.9,024.9,14.3,0000.0,0010.92,0005.29,0004.75
2023-10-28 03:16:00,SystemResetWarning,0831.2,5.00,000.00,023.4,021.7,000.0,031.9,024.9,14.3,0000.0,0010.82,0005.26,0004.74
2023-10-28 03:17:00,SystemResetWarning,0831.2,5.00,000.00,023.4,021.7,000.0,031.9,024.9,14.2,0000.0,0010.79,0005.23,0004.74
2023-10-28 03:18:00,SystemResetWarning,0831.2,5.00,000.00,023.4,021.7,000.0,031.8,024.9,14.2,0000.0,0010.87,0005.21,0004.74
2023-10-28 03:19:00,SystemResetWarning,0831.1,5.00,000.00,023.4,021.7,000.0,031.8,024.8,14.2,0000.0,0009.76,0005.23,0004.76
2023-10-28 03:20:00,SystemResetWarning,0831.2,5.01,000.00,023.4,021.7,000.0,031.8,024.8,14.3,0000.0,0010.43,0005.24,0004.78
2023-10-28 03:21:00,SystemResetWarning,0831.1,5.01,000.00,023.4,021.7,000.0,031.8,024.8,14.3,0000.0,0011.39,0005.31,0004.82
2023-10-28 03:22:00,SystemResetWarning,0831.1,5.00,000.00,023.4,021.7,000.0,031.8,024.8,14.3,0000.0,0011.38,0005.32,0004.84
2023-10-28 03:23:00,SystemResetWarning,0831.1,5.00,000.00,023.4,021.6,000.0,031.8,024.8,14.3,0000.0,0011.44,0005.36,0004.86
2023-10-28 03:24:00,SystemResetWarning,0831.1,5.00,000.00,023.3,021.6,000.0,031.8,024.8,14.3,0000.0,0011.51,0005.44,0004.90
2023-10-28 03:25:00,SystemResetWarning,0831.1,5.00,000.00,023.3,021.6,000.0,031.8,024.8,14.3,0000.0,0011.79,0005.49,0004.93
2023-10-28 03:26:00,SystemResetWarning,0831.0,5.00,000.00,023.3,021.6,000.0,031.8,024.8,14.3,0000.0,0012.26,0005.52,0004.95
2023-10-28 03:27:00,SystemResetWarning,0831.0,5.00,000.00,023.3,021.6,000.0,031.7,024.8,14.3,0000.0,0012.39,0005.54,0004.95
2023-10-28 03:28:00,SystemResetWarning,0831.1,5.00,000.00,023.3,021.6,000.0,031.7,024.8,14.3,0000.0,0012.51,0005.57,0004.98
2023-10-28 03:29:00,SystemResetWarning,0831.2,5.00,000.00,023.3,021.6,000.0,031.7,024.8,14.3,0000.0,0012.19,0005.62,0005.02
2023-10-28 03:30:00,SystemResetWarning,0831.1,5.01,000.00,023.3,021.6,000.0,031.7,024.7,14.2,0000.0,0012.82,0005.66,0005.05
2023-10-28 03:31:00,SystemResetWarning,0831.2,5.01,000.00,023.3,021.6,000.0,031.7,024.7,14.1,0002.7,0012.99,0005.70,0005.05
2023-10-28 03:32:00,SystemResetWarning,0831.2,5.00,000.00,023.3,021.6,000.0,031.7,024.7,14.2,0000.0,0012.15,0005.73,0005.05
2023-10-28 03:33:00,SystemResetWarning,0831.2,5.00,000.00,023.3,021.6,000.0,031.7,024.7,14.3,0000.3,0011.29,0005.70,0005.05
2023-10-28 03:34:00,SystemResetWarning,0831.2,5.00,000.00,023.2,021.6,000.0,031.7,024.7,14.3,0000.8,0011.24,0005.68,0005.07
2023-10-28 03:35:00,SystemResetWarning,0831.2,5.00,000.00,023.2,021.6,000.0,031.7,024.7,14.2,0000.2,0011.14,0005.66,0005.07
2023-10-28 03:36:00,SystemResetWarning,0831.2,5.00,000.00,023.2,021.6,000.0,031.7,024.7,13.9,0000.3,0011.00,0005.62,0005.07
2023-10-28 03:37:00,SystemResetWarning,0831.2,5.00,000.00,023.2,021.5,000.0,031.6,024.7,13.9,0000.7,0010.43,0005.58,0005.07
2023-10-28 03:38:00,SystemResetWarning,0831.2,5.00,000.00,023.2,021.5,000.0,031.6,024.7,14.1,0000.4,0010.48,0005.57,0005.08
2023-10-28 03:39:00,SystemResetWarning,0831.2,5.00,000.00,023.2,021.5,000.0,031.6,024.7,14.2,-000.1,0010.38,0005.57,0005.07
2023-10-28 03:40:00,SystemResetWarning,0831.2,5.00,000.00,023.2,021.5,000.0,031.6,024.7,14.3,-000.0,0010.53,0005.61,0005.06
2023-10-28 03:41:00,SystemResetWarning,0831.2,5.00,000.00,023.2,021.5,000.0,031.6,024.7,14.3,-000.1,0010.38,0005.61,0005.06
2023-10-28 03:42:00,SystemResetWarning,0831.2,5.00,000.00,023.2,021.5,000.0,031.6,024.7,14.1,0000.0,0010.54,0005.59,0005.03
2023-10-28 03:43:00,SystemResetWarning,0831.3,5.00,000.00,023.2,021.5,000.0,031.6,024.7,14.0,0000.0,0010.61,0005.54,0005.00
2023-10-28 03:44:00,SystemResetWarning,0831.3,5.00,000.00,023.2,021.5,000.0,031.6,024.7,14.0,0000.0,0010.81,0005.52,0004.98
2023-10-28 03:45:00,SystemResetWarning,0831.3,5.00,000.00,023.2,021.5,000.0,031.6,024.7,13.9,0000.0,0010.94,0005.54,0004.95
2023-10-28 03:46:00,SystemResetWarning,0831.3,5.00,000.00,023.2,021.5,000.0,031.6,024.8,13.9,0000.0,0010.94,0005.53,0004.93
2023-10-28 03:47:00,SystemResetWarning,0831.3,5.00,000.00,023.2,021.5,000.0,031.6,024.7,13.8,0000.0,0011.42,0005.49,0004.88
2023-10-28 03:48:00,SystemResetWarning,0831.2,5.00,000.00,023.2,021.5,000.0,031.6,024.7,13.6,0000.0,0011.69,0005.49,0004.84
2023-10-28 03:49:00,SystemResetWarning,0831.2,5.00,000.00,023.2,021.5,000.0,031.6,024.7,13.5,0000.0,0011.73,0005.47,0004.80
2023-10-28 03:50:00,SystemResetWarning,0831.2,5.00,000.00,023.2,021.5,000.0,031.6,024.7,13.6,0000.0,0011.60,0005.43,0004.77
2023-10-28 03:51:00,SystemResetWarning,0831.2,5.00,000.00,023.2,021.5,000.0,031.5,024.7,13.6,0000.0,0011.98,0005.39,0004.73
2023-10-28 03:52:00,SystemResetWarning,0831.2,5.00,000.00,023.2,021.5,000.0,031.5,024.7,13.7,0000.0,0012.60,0005.36,0004.68
2023-10-28 03:53:00,SystemResetWarning,0831.2,5.00,000.00,023.2,021.5,000.0,031.5,024.7,14.0,0000.0,0012.09,0005.32,0004.66
2023-10-28 03:54:00,SystemResetWarning,0831.2,5.00,000.00,023.2,021.5,000.0,031.5,024.7,14.1,0000.0,0011.80,0005.27,0004.63
2023-10-28 03:55:00,SystemResetWarning,0831.2,5.00,000.00,023.1,021.5,000.0,031.5,024.7,13.9,0000.0,0011.64,0005.24,0004.61
2023-10-28 03:56:00,SystemResetWarning,0831.2,5.00,000.00,023.1,021.5,000.0,031.5,024.7,13.8,0000.0,0011.41,0005.19,0004.60
2023-10-28 03:57:00,SystemResetWarning,0831.3,5.00,000.00,023.1,021.5,000.0,031.5,024.7,13.7,0000.0,0011.31,0005.16,0004.58
2023-10-28 03:58:00,SystemResetWarning,0831.3,5.00,000.00,023.1,021.5,000.0,031.5,024.7,13.7,0000.0,0011.16,0005.15,0004.56
2023-10-28 03:59:00,SystemResetWarning,0831.3,5.01,000.00,023.1,021.5,000.0,031.5,024.7,13.6,0000.0,0011.07,0005.16,0004.56
